This is the latest recevied weather packets stored in our database for station/object KJ4EWA. If no packets are shown the sender has not sent any weather packets the latest 10 day(s).
| Time | Temp. | Humidity | Pressure | Rain* | Wind** | Luminosity | Snow |
|---|---|---|---|---|---|---|---|
| 1777903021 | 18.89° C | 71% | 1022 hPa | 0 mm | - | 48 W/m² | - |
| 1777902717 | 17.78° C | 79% | 1021.9 hPa | 0 mm | - | 105 W/m² | - |
| 1777902415 | 16.67° C | 86% | 1021.9 hPa | 0 mm | - | 88 W/m² | - |
| 1777902111 | 15° C | 99% | 1022.1 hPa | 0 mm | - | 139 W/m² | - |
| 1777901810 | 13.89° C | 99% | 1022 hPa | 0 mm | - | 279 W/m² | - |
| 1777901507 | 13.89° C | 99% | 1022 hPa | 0 mm | - | 43 W/m² | - |
| 1777901204 | 13.89° C | 99% | 1021.7 hPa | 0 mm | - | 38 W/m² | - |
| 1777900902 | 13.33° C | 99% | 1021.7 hPa | 0 mm | - | 38 W/m² | - |
| 1777900599 | 12.78° C | 99% | 1021.7 hPa | 0 mm | - | 40 W/m² | - |
| 1777900296 | 12.22° C | 99% | 1021.5 hPa | 0 mm | - | 35 W/m² | - |
| 1777899992 | 11.67° C | 99% | 1021.5 hPa | 0 mm | - | 34 W/m² | - |
| 1777899689 | 11.11° C | 99% | 1021.5 hPa | 0 mm | - | 34 W/m² | - |
| 1777899387 | 11.11° C | 99% | 1021.7 hPa | 0 mm | - | 34 W/m² | - |
| 1777899084 | 10.56° C | 99% | 1021.4 hPa | 0 mm | - | 35 W/m² | - |
| 1777898781 | 10° C | 99% | 1021.6 hPa | 0 mm | - | 31 W/m² | - |
| 1777898479 | 10° C | 99% | 1021.3 hPa | 0 mm | - | 33 W/m² | - |
| 1777898176 | 9.44° C | 99% | 1021.5 hPa | 0 mm | - | 34 W/m² | - |
| 1777897874 | 9.44° C | 99% | 1021.5 hPa | 0 mm | - | 33 W/m² | - |
| 1777897569 | 8.89° C | 99% | 1021.4 hPa | 0 mm | - | 29 W/m² | - |
| 1777897265 | 8.33° C | 99% | 1021.5 hPa | 0 mm | - | 26 W/m² | - |
| 1777896961 | 7.78° C | 99% | 1021.3 hPa | 0 mm | - | 27 W/m² | - |
| 1777896658 | 7.78° C | 99% | 1021.2 hPa | 0 mm | - | 24 W/m² | - |
| 1777896355 | 7.78° C | 99% | 1021.2 hPa | 0 mm | - | 22 W/m² | - |
| 1777896053 | 7.22° C | 99% | 1021.1 hPa | 0 mm | - | 18 W/m² | - |
| 1777895751 | 6.67° C | 99% | 1021.1 hPa | 0 mm | - | 17 W/m² | - |
* Rain latest hour (hover to see other rain measurements)
** Current wind speed in m/s (hover to see current wind gust speed)